When you browse on this site, cookies collect data to enhance your experience and personalize the content and advertising you see.
Visit our Privacy Policy to learn more. By continuing to use the site, you agree to this use of cookies and data.
  • în România
  • Lista ţărilor
  • Pe 7 zile
  • Temperatura apei
  • Hartă satelitară
  • Meteo pe hartă
  • Widget-uri
  • user-avatar
    Intrare

    Meteo pe oră la Lunyakovo

    Astăzi, 16 Ianuarie, Miercuri

    Timp Temperatura Precipitaţii Vânt Presiune Umiditate
    00:00 -9°C° 0 mm 4 m/s 727 mmHg 90%
    01:00 -9°C° 0 mm 3 m/s 728 mmHg 90%
    02:00 -9°C° 0 mm 3 m/s 728 mmHg 91%
    03:00 -9°C° 0 mm 3 m/s 728 mmHg 91%
    04:00 -10°C° 0 mm 3 m/s 728 mmHg 91%
    05:00 -10°C° 0 mm 3 m/s 728 mmHg 91%
    06:00 -10°C° 0 mm 3 m/s 729 mmHg 92%
    07:00 -12°C° 0 mm 3 m/s 729 mmHg 93%
    08:00 -12°C° 0 mm 3 m/s 729 mmHg 93%
    09:00 -10°C° 0 mm 3 m/s 729 mmHg 93%
    10:00 -10°C° 0 mm 3 m/s 729 mmHg 92%
    11:00 -9°C° 0 mm 3 m/s 730 mmHg 91%
    12:00 -9°C° 0 mm 3 m/s 730 mmHg 91%
    13:00 -9°C° 0 mm 3 m/s 730 mmHg 91%
    14:00 -8°C° 0 mm 3 m/s 730 mmHg 90%
    15:00 -8°C° 0 mm 3 m/s 731 mmHg 91%
    16:00 -9°C° 0 mm 3 m/s 731 mmHg 92%
    17:00 -8°C° 0 mm 2 m/s 731 mmHg 93%
    18:00 -9°C° 0 mm 3 m/s 732 mmHg 93%
    19:00 -9°C° 0 mm 3 m/s 732 mmHg 93%
    20:00 -9°C° 0 mm 3 m/s 732 mmHg 93%
    21:00 -9°C° 0 mm 3 m/s 732 mmHg 93%
    22:00 -9°C° 0 mm 3 m/s 733 mmHg 92%
    23:00 -9°C° 0 mm 3 m/s 733 mmHg 91%

    Mâine, 17 Ianuarie, Joi

    Timp Temperatura Precipitaţii Vânt Presiune Umiditate
    00:00 -9°C° 0 mm 3 m/s 733 mmHg 91%
    01:00 -9°C° 0 mm 3 m/s 734 mmHg 90%
    02:00 -9°C° 0 mm 3 m/s 734 mmHg 89%
    03:00 -10°C° 0 mm 3 m/s 734 mmHg 90%
    04:00 -10°C° 0 mm 3 m/s 734 mmHg 91%
    05:00 -12°C° 0 mm 3 m/s 734 mmHg 92%
    06:00 -12°C° 0 mm 3 m/s 733 mmHg 92%
    07:00 -11°C° 0 mm 4 m/s 733 mmHg 91%
    08:00 -12°C° 0 mm 5 m/s 732 mmHg 91%
    09:00 -11°C° 0.4 mm 5 m/s 732 mmHg 90%
    10:00 -8°C° 0.4 mm 5 m/s 731 mmHg 90%
    11:00 -8°C° 0.4 mm 6 m/s 730 mmHg 89%
    12:00 -6°C° 0.5 mm 6 m/s 730 mmHg 89%
    13:00 -5°C° 0.5 mm 6 m/s 729 mmHg 88%
    14:00 -4°C° 0.5 mm 6 m/s 729 mmHg 88%
    15:00 -3°C° 0.2 mm 6 m/s 728 mmHg 87%
    16:00 -3°C° 0.2 mm 6 m/s 728 mmHg 87%
    17:00 -2°C° 0.2 mm 6 m/s 727 mmHg 86%
    18:00 -2°C° 0.3 mm 7 m/s 726 mmHg 86%
    19:00 -2°C° 0.3 mm 7 m/s 726 mmHg 85%
    20:00 -2°C° 0.3 mm 7 m/s 725 mmHg 84%
    21:00 -2°C° 0.1 mm 7 m/s 725 mmHg 83%
    22:00 -2°C° 0.1 mm 7 m/s 725 mmHg 83%
    23:00 -2°C° 0.1 mm 7 m/s 724 mmHg 82%

    Poimâine, 18 Ianuarie, Vineri

    Timp Temperatura Precipitaţii Vânt Presiune Umiditate
    00:00 -2°C° 0 mm 7 m/s 725 mmHg 81%
    01:00 -1°C° 0 mm 7 m/s 725 mmHg 80%
    02:00 -1°C° 0 mm 8 m/s 725 mmHg 79%
    03:00 -2°C° 0.1 mm 7 m/s 726 mmHg 79%
    04:00 -2°C° 0.1 mm 7 m/s 727 mmHg 79%
    05:00 -2°C° 0.1 mm 7 m/s 727 mmHg 79%
    06:00 -3°C° 0 mm 6 m/s 728 mmHg 81%
    07:00 -2°C° 0 mm 5 m/s 729 mmHg 82%
    08:00 -4°C° 0 mm 5 m/s 729 mmHg 84%
    09:00 -2°C° 0 mm 4 m/s 729 mmHg 86%
    10:00 -2°C° 0 mm 4 m/s 729 mmHg 88%
    11:00 -1°C° 0 mm 3 m/s 729 mmHg 91%
    12:00 -1°C° 0.3 mm 4 m/s 729 mmHg 91%
    13:00 -1°C° 0.3 mm 4 m/s 728 mmHg 91%
    14:00 -1°C° 0.3 mm 4 m/s 728 mmHg 91%
    15:00 -2°C° 0.2 mm 5 m/s 728 mmHg 87%
    16:00 -3°C° 0.2 mm 7 m/s 728 mmHg 83%
    17:00 -4°C° 0.2 mm 8 m/s 728 mmHg 79%
    18:00 -7°C° 0.4 mm 7 m/s 728 mmHg 82%
    19:00 -9°C° 0.4 mm 7 m/s 729 mmHg 85%
    20:00 -12°C° 0.4 mm 6 m/s 730 mmHg 88%
    21:00 -12°C° 0.2 mm 5 m/s 731 mmHg 87%
    22:00 -12°C° 0.2 mm 5 m/s 732 mmHg 86%
    23:00 -11°C° 0.2 mm 4 m/s 733 mmHg 86%

    19 Ianuarie, Sâmbătă

    Timp Temperatura Precipitaţii Vânt Presiune Umiditate
    00:00 -12°C° 0 mm 4 m/s 734 mmHg 86%
    01:00 -12°C° 0 mm 4 m/s 734 mmHg 87%
    02:00 -14°C° 0 mm 4 m/s 735 mmHg 88%
    03:00 -11°C° 0.1 mm 4 m/s 735 mmHg 87%
    04:00 -10°C° 0.1 mm 4 m/s 735 mmHg 87%
    05:00 -8°C° 0.1 mm 4 m/s 735 mmHg 86%
    06:00 -8°C° 0.2 mm 4 m/s 736 mmHg 87%
    07:00 -8°C° 0.2 mm 4 m/s 736 mmHg 89%
    08:00 -8°C° 0.2 mm 4 m/s 736 mmHg 90%
    09:00 -8°C° 0.3 mm 4 m/s 737 mmHg 88%
    10:00 -8°C° 0.3 mm 5 m/s 737 mmHg 86%
    11:00 -7°C° 0.3 mm 5 m/s 738 mmHg 84%
    12:00 -7°C° 0.1 mm 5 m/s 738 mmHg 84%
    13:00 -7°C° 0.1 mm 5 m/s 738 mmHg 84%
    14:00 -7°C° 0.1 mm 4 m/s 739 mmHg 84%
    15:00 -7°C° 0.2 mm 4 m/s 739 mmHg 85%
    16:00 -7°C° 0.2 mm 5 m/s 739 mmHg 85%
    17:00 -7°C° 0.2 mm 5 m/s 739 mmHg 86%
    18:00 -8°C° 0 mm 4 m/s 739 mmHg 86%
    19:00 -9°C° 0 mm 4 m/s 739 mmHg 87%
    20:00 -9°C° 0 mm 4 m/s 740 mmHg 87%
    21:00 -9°C° 0 mm 4 m/s 740 mmHg 87%
    22:00 -9°C° 0 mm 4 m/s 740 mmHg 87%
    23:00 -8°C° 0 mm 4 m/s 740 mmHg 86%

    20 Ianuarie, Duminică

    Timp Temperatura Precipitaţii Vânt Presiune Umiditate
    00:00 -9°C° 0 mm 4 m/s 740 mmHg 87%
    01:00 -9°C° 0 mm 4 m/s 740 mmHg 88%
    02:00 -10°C° 0 mm 4 m/s 740 mmHg 89%
    03:00 -10°C° 0 mm 4 m/s 740 mmHg 90%
    04:00 -9°C° 0 mm 3 m/s 740 mmHg 91%
    05:00 -9°C° 0 mm 3 m/s 740 mmHg 91%
    06:00 -9°C° 0 mm 3 m/s 740 mmHg 92%
    07:00 -9°C° 0 mm 3 m/s 740 mmHg 93%
    08:00 -9°C° 0 mm 2 m/s 741 mmHg 93%
    09:00 -8°C° 0 mm 2 m/s 741 mmHg 92%
    10:00 -7°C° 0 mm 2 m/s 741 mmHg 91%
    11:00 -8°C° 0 mm 3 m/s 742 mmHg 90%
    12:00 -7°C° 0 mm 2 m/s 742 mmHg 90%
    13:00 -6°C° 0 mm 2 m/s 741 mmHg 90%
    14:00 -6°C° 0 mm 2 m/s 741 mmHg 90%
    15:00 -7°C° 0 mm 2 m/s 741 mmHg 91%
    16:00 -8°C° 0 mm 2 m/s 741 mmHg 93%
    17:00 -9°C° 0 mm 2 m/s 741 mmHg 95%
    18:00 -9°C° 0 mm 2 m/s 741 mmHg 95%
    19:00 -10°C° 0 mm 2 m/s 741 mmHg 95%
    20:00 -10°C° 0 mm 2 m/s 741 mmHg 95%
    21:00 -10°C° 0.1 mm 2 m/s 741 mmHg 95%
    22:00 -9°C° 0.1 mm 2 m/s 741 mmHg 96%
    23:00 -8°C° 0.1 mm 2 m/s 741 mmHg 96%

    21 Ianuarie, Luni

    Timp Temperatura Precipitaţii Vânt Presiune Umiditate
    00:00 -9°C° 0 mm 2 m/s 741 mmHg 96%
    01:00 -9°C° 0 mm 2 m/s 741 mmHg 96%
    02:00 -10°C° 0 mm 2 m/s 741 mmHg 96%
    03:00 -10°C° 0 mm 2 m/s 741 mmHg 96%
    04:00 -9°C° 0 mm 1 m/s 741 mmHg 96%
    05:00 -9°C° 0 mm 1 m/s 741 mmHg 97%
    06:00 -10°C° 0 mm 2 m/s 741 mmHg 96%
    07:00 -10°C° 0 mm 2 m/s 741 mmHg 96%
    08:00 -10°C° 0 mm 2 m/s 741 mmHg 96%
    09:00 -10°C° 0 mm 2 m/s 742 mmHg 95%
    10:00 -9°C° 0 mm 2 m/s 742 mmHg 94%
    11:00 -9°C° 0 mm 2 m/s 742 mmHg 93%
    12:00 -8°C° 0 mm 2 m/s 742 mmHg 93%
    13:00 -8°C° 0 mm 2 m/s 742 mmHg 92%
    14:00 -8°C° 0 mm 2 m/s 742 mmHg 91%
    15:00 -8°C° 0 mm 1 m/s 742 mmHg 93%
    16:00 -8°C° 0 mm 1 m/s 742 mmHg 94%
    17:00 -9°C° 0 mm 1 m/s 742 mmHg 95%
    18:00 -10°C° 0 mm 1 m/s 742 mmHg 95%
    19:00 -10°C° 0 mm 1 m/s 743 mmHg 96%
    20:00 -11°C° 0 mm 1 m/s 743 mmHg 96%
    21:00 -14°C° 0 mm 2 m/s 743 mmHg 97%
    22:00 -14°C° 0 mm 2 m/s 743 mmHg 97%
    23:00 -14°C° 0 mm 2 m/s 743 mmHg 97%
    Arată mai mult